Portada
METAR-TAF:

METAR-TAF

Aeroports :

Proserpine, Austràlia

latitud: 20-29-42S, longitud: 148-33-06E, altitud: 25 m

Observació

L'informe es va fer fa 1 hora i 2 minuts, a les 19:00 UTC
Vent 1 kt del Oest/Sud-Oest
Temperatura 19°C
Humitat 94%
Pressió 1011 hPa
Visibilitat 10 km o més
Cel ennuvolat a una alçada de 2200 ft
Cel cobert a una alçada de 2800 ft

METAR: YBPN 131900Z AUTO 24001KT 9999 // BKN022 OVC028 19/18 Q1011

Hora: 06:02 (20:02 UTC)


TAF: manca

Observacions i pronòstics meteorològics de més de 4000 aeroports (METAR i TAF).

Les estacions disponibles són els punts grocs i vermells al mapa.

Posi el ratolí al punt desitjat per veure el nom de l'estació.

Feu clic per veure les observacions i els pronòstics meteorològics.

Per canviar el mapa: feu clic els botons verds amb una creu de color negre per apropar; al botó verd amb un guió per allunyar la imatge; o en les fletxes verdes per a mapes adjacents.


METAR-TAF: